Wind_Speed
6 7 6 6 7 7 7 7 8 8 9 9 9 9 9 9 9 9 9 9 9 9 9 9 9 10 10 10 10 9 9 8 8 7 7 7 6 6 5 5 4 4 4
4 4 4 5 5 6 6 7 7 8 9 9 9 9 9 9 9 9 9 9 8 8 8 8 8 8 8 8 8 8 8 8 7 7 6 6 6 5 5 4 3 2 2
2 2 3 4 5 5 6 7 7 8 9 9 9 9 9 9 9 9 9 9 9 8 8 8 8 8 8 7 7 7 7 7 6 6 6 5 5 5 5 4 2 1 1
2 3 4 5 5 6 7 7 8 9 9 9 9 10 10 10 10 10 10 10 9 9 8 8 7 7 7 7 7 6 6 6 5 5 5 5 5 5 5 4 3 1 1
4 5 6 6 7 7 7 8 9 9 10 10 10 11 11 11 11 11 11 11 11 10 10 9 8 8 8 7 7 6 6 6 5 5 5 4 5 5 5 4 4 3 3
6 7 7 7 8 8 8 9 10 10 11 11 12 12 12 12 12 12 12 12 12 12 12 11 10 10 9 9 8 8 7 7 6 6 6 5 5 5 5 5 4 4 4
7 7 8 8 8 9 10 10 11 12 13 13 13 14 14 14 14 14 14 14 14 14 13 13 12 12 11 10 10 10 9 9 8 8 7 7 7 6 6 6 5 5 5
7 8 8 9 10 11 12 12 13 14 15 16 16 16 16 16 16 16 16 16 16 16 15 15 15 14 14 13 12 12 12 11 11 10 10 9 9 8 8 7 7 6 6
8 9 10 11 12 13 14 15 16 17 18 18 18 18 18 19 18 18 18 18 18 18 17 17 17 17 16 16 15 15 15 14 14 13 12 12 11 11 10 10 9 8 8
10 11 12 13 15 16 17 18 19 20 20 20 20 21 21 21 21 21 21 21 21 20 20 20 20 20 19 19 18 18 17 17 17 16 15 14 14 14 13 12 11 11 10
13 14 15 16 18 19 20 21 21 22 22 23 23 23 23 24 24 24 24 24 24 24 23 23 23 23 22 22 22 21 21 20 20 19 18 18 17 17 16 15 14 14 13
16 17 18 19 20 21 21 22 23 23 24 24 24 25 25 26 26 26 26 27 27 27 26 26 26 26 26 26 25 25 24 24 23 22 21 21 21 20 19 18 17 17 16
19 20 21 21 22 23 24 24 25 25 25 26 26 26 27 27 28 28 28 28 29 29 29 29 29 29 29 28 28 28 27 27 26 26 24 24 24 23 22 21 21 20 19
22 22 23 24 25 26 26 26 27 28 27 26 26 26 26 27 28 29 29 29 29 30 30 30 30 30 30 30 30 30 29 29 29 29 28 27 27 27 26 25 25 24 23
24 25 26 27 28 28 29 29 29 29 28 27 26 26 26 27 28 29 30 30 31 31 30 30 30 31 31 31 31 31 32 33 33 32 32 31 31 31 30 30 29 28 27
27 29 30 31 31 31 31 31 30 29 29 28 27 26 27 28 29 29 29 29 30 30 29 29 29 30 31 32 32 32 32 33 34 34 35 34 33 33 32 32 32 31 31
32 32 32 34 34 33 33 32 31 31 29 28 27 27 28 29 29 29 28 28 28 28 27 27 27 28 29 30 31 31 30 31 31 32 33 34 34 33 33 32 33 32 32
34 34 35 35 35 35 34 33 33 31 30 29 28 28 28 28 29 28 27 26 26 25 24 25 25 25 26 27 28 28 29 29 30 32 32 31 33 34 34 33 33 34 34
36 35 36 37 37 36 35 35 34 32 31 30 30 29 28 27 27 26 25 24 24 23 23 23 23 24 25 26 26 26 27 28 29 30 30 31 32 32 33 32 33 33 33
36 37 37 38 37 37 36 36 34 33 32 32 31 29 28 27 26 25 24 23 22 21 21 22 23 23 24 25 25 25 27 28 29 28 28 29 29 31 32 34 34 33 33
37 38 38 37 38 38 38 37 35 34 33 32 30 29 28 26 25 24 23 22 21 21 21 22 22 23 24 24 24 25 26 27 27 28 28 28 29 30 30 31 31 31 31
39 39 38 38 38 38 38 37 36 34 33 32 30 29 27 26 24 24 23 22 22 22 22 22 22 23 24 25 25 25 25 26 26 27 27 27 28 29 29 29 30 28 28
37 36 35 37 38 38 38 38 36 34 34 33 30 29 27 26 25 25 24 24 24 23 23 23 23 24 25 25 26 26 26 25 25 25 26 27 27 27 27 27 28 29 30
36 36 36 38 39 40 39 38 35 35 34 32 30 28 27 26 26 25 25 25 25 25 25 25 25 25 25 26 27 27 27 26 25 24 25 26 27 27 27 27 28 29 30
36 36 37 38 37 37 37 37 36 35 33 31 30 29 28 28 27 27 27 27 27 27 27 27 26 26 27 27 27 28 28 27 27 26 25 26 27 27 26 27 28 29 29
34 36 36 36 36 37 38 37 37 35 34 34 33 32 30 30 30 30 30 30 30 30 30 30 29 29 29 29 29 29 29 29 28 28 27 26 27 27 27 27 28 28 27
Wind_Direction
81 76 68 60 52 46 38 30 22 16 14 14 15 17 19 21 23 24 26 28 29 30 29 30 30 30 31 30 29 29 30 32 33 35 37 40 44 48 56 67 75 81 83
76 68 55 42 33 27 21 14 9 4 0 359 360 2 4 7 8 9 11 13 15 17 18 19 20 21 23 24 24 23 22 23 24 25 26 27 30 34 40 53 66 80 84
50 38 17 5 1 0 358 356 353 351 349 347 347 348 350 353 354 355 356 358 359 0 1 4 5 7 9 12 12 12 12 12 14 14 15 14 14 16 21 26 37 56 86
324 333 333 332 334 338 341 341 341 340 339 338 336 336 336 338 339 340 342 343 344 345 346 346 348 349 350 354 355 355 356 356 358 359 360 0 357 359 1 2 356 331 278
302 311 314 316 321 327 332 334 334 333 332 332 330 328 327 328 328 328 330 330 330 331 332 332 331 332 331 332 334 336 336 336 336 339 341 342 338 345 346 344 339 321 285
297 305 308 311 317 322 326 328 329 328 328 327 325 324 323 321 320 320 319 319 318 318 319 319 319 318 318 318 318 318 318 317 317 320 323 325 323 328 328 325 322 315 289
296 303 307 312 318 320 322 323 323 323 323 323 322 320 318 316 314 312 311 310 309 308 308 309 310 310 310 309 308 307 307 306 305 306 308 308 307 310 310 309 308 307 296
295 302 309 313 317 320 320 320 319 318 317 317 316 314 313 311 310 308 307 305 303 302 300 300 301 301 302 302 301 300 299 299 297 298 299 298 297 297 297 296 294 293 290
295 302 308 312 315 317 317 317 315 314 313 312 312 310 309 307 306 305 303 302 300 298 296 295 294 294 294 295 295 295 295 294 292 292 293 292 290 290 290 289 286 283 283
301 306 311 314 314 314 314 313 313 312 311 310 309 307 305 304 303 301 299 298 296 293 291 290 289 289 288 288 289 289 289 289 289 289 288 288 286 285 283 283 281 278 277
300 305 309 312 312 312 313 313 313 312 310 309 306 304 302 301 299 298 296 294 293 291 289 286 284 284 284 283 283 283 283 283 285 284 284 284 283 283 281 279 277 274 273
302 306 309 311 312 312 313 313 312 311 310 307 304 302 300 298 296 295 294 293 292 289 286 283 281 279 279 279 278 278 277 278 279 279 279 279 279 279 278 276 274 273 270
301 305 309 312 313 314 314 313 312 310 308 305 302 299 297 296 293 292 290 289 289 288 286 284 281 279 278 276 275 275 273 273 274 275 276 277 275 274 274 273 272 271 270
299 303 307 310 312 314 315 314 312 310 306 303 300 297 296 294 292 291 290 289 287 287 286 284 282 281 280 278 276 274 271 270 270 271 272 273 273 271 270 268 268 268 269
299 303 306 309 311 313 314 313 311 309 306 303 300 296 295 293 291 290 290 289 289 288 287 286 284 282 281 281 279 275 271 268 267 268 269 270 271 272 271 268 266 265 265
296 300 305 306 308 310 311 311 311 309 307 303 299 297 295 293 292 291 290 289 289 289 289 288 287 286 284 283 281 279 276 275 272 269 268 268 270 272 271 269 268 265 264
294 298 301 302 304 307 308 308 309 308 306 302 298 297 296 295 293 291 291 289 289 289 290 290 288 287 285 284 282 280 278 277 277 276 273 269 268 270 271 269 268 267 265
291 295 297 298 301 303 304 305 307 306 303 302 299 297 296 294 293 292 291 290 289 290 290 290 291 291 290 288 287 286 283 280 278 277 275 273 272 270 268 268 269 267 265
287 291 294 296 298 299 300 301 302 303 302 303 301 298 296 294 292 291 290 290 291 292 293 293 293 294 292 291 289 289 289 287 283 281 278 276 275 271 269 269 270 267 264
286 289 290 292 294 295 296 297 299 300 300 300 299 297 295 293 291 288 288 289 290 292 294 295 294 294 295 294 294 292 291 288 287 284 280 278 277 273 270 269 269 267 262
282 285 285 286 289 291 292 295 296 297 297 298 296 293 291 289 287 286 286 287 290 292 293 295 296 298 298 298 298 297 295 292 288 284 282 281 277 273 272 271 268 266 262
281 281 281 283 287 287 289 291 292 294 295 295 294 291 287 284 283 282 284 285 288 290 292 294 297 300 301 301 300 299 299 295 295 289 284 283 280 274 271 270 267 264 261
277 276 277 283 286 286 287 288 289 291 292 292 290 288 286 283 281 281 283 284 286 287 290 292 295 298 300 302 303 303 302 298 295 293 288 284 280 276 272 270 267 264 260
276 277 280 282 283 285 285 286 287 289 290 289 287 285 282 280 279 279 280 282 284 286 288 290 293 296 299 301 302 303 303 300 298 294 289 286 280 274 272 269 264 262 260
278 280 281 280 281 284 286 286 286 286 288 287 286 285 282 279 278 277 278 279 282 284 286 288 291 293 296 299 300 301 302 300 298 297 292 286 282 276 272 268 262 260 259
282 282 281 281 282 283 284 285 285 286 286 286 286 284 281 279 278 278 278 279 280 282 284 286 288 291 293 296 297 299 299 299 297 296 295 289 285 281 276 270 266 263 260
Height
5920 5919 5919 5919 5919 5918 5918 5918 5917 5917 5916 5915 5914 5913 5911 5910 5909 5908 5906 5905 5904 5903 5902 5901 5900 5899 5898 5897 5896 5895 5894 5894 5893 5892 5892 5891 5891 5891 5890 5890 5891 5891 5891
5921 5920 5920 5920 5920 5919 5919 5918 5918 5917 5916 5916 5915 5914 5912 5911 5910 5909 5908 5906 5905 5904 5903 5902 5901 5900 5899 5898 5897 5896 5896 5895 5894 5894 5893 5893 5892 5892 5892 5891 5892 5892 5892
5921 5920 5921 5920 5920 5920 5919 5919 5918 5917 5917 5916 5915 5914 5913 5912 5911 5909 5908 5907 5906 5905 5904 5903 5902 5901 5900 5899 5898 5897 5897 5896 5895 5894 5894 5894 5893 5893 5892 5892 5892 5893 5893
5921 5921 5921 5920 5920 5920 5919 5918 5918 5917 5917 5916 5915 5914 5913 5912 5911 5910 5908 5907 5906 5905 5904 5903 5902 5902 5901 5900 5899 5898 5897 5896 5896 5895 5895 5894 5894 5893 5893 5893 5893 5893 5893
5920 5920 5920 5920 5920 5919 5919 5918 5917 5917 5916 5915 5915 5914 5913 5912 5911 5909 5908 5907 5906 5905 5904 5903 5903 5902 5901 5900 5899 5898 5898 5897 5896 5896 5895 5895 5894 5894 5893 5893 5893 5893 5893
5920 5919 5919 5919 5919 5918 5918 5917 5917 5916 5915 5915 5914 5913 5912 5911 5910 5909 5907 5906 5905 5904 5903 5903 5902 5901 5901 5900 5899 5898 5898 5897 5896 5896 5895 5895 5894 5894 5894 5893 5893 5893 5893
5919 5919 5918 5918 5918 5917 5917 5916 5916 5915 5914 5913 5912 5911 5910 5909 5908 5907 5906 5905 5904 5903 5902 5901 5901 5900 5900 5899 5898 5898 5897 5896 5896 5895 5895 5895 5894 5894 5894 5893 5893 5893 5893
5918 5918 5917 5917 5917 5916 5916 5915 5914 5913 5913 5912 5911 5909 5908 5907 5906 5905 5904 5903 5902 5901 5900 5900 5899 5898 5898 5897 5897 5896 5896 5895 5895 5895 5894 5894 5894 5893 5893 5893 5893 5893 5893
5917 5916 5916 5916 5915 5914 5914 5913 5912 5911 5910 5909 5908 5907 5905 5904 5903 5902 5901 5900 5899 5898 5898 5897 5897 5896 5896 5895 5895 5894 5894 5893 5893 5893 5893 5893 5892 5892 5892 5892 5892 5892 5892
5915 5914 5914 5914 5913 5912 5911 5910 5909 5908 5907 5906 5905 5903 5902 5901 5900 5898 5897 5896 5896 5895 5894 5894 5893 5893 5892 5892 5892 5892 5891 5890 5890 5890 5890 5890 5890 5890 5890 5890 5891 5891 5891
5912 5912 5912 5911 5910 5909 5908 5907 5906 5905 5904 5902 5901 5900 5898 5897 5896 5894 5893 5892 5892 5891 5890 5890 5889 5889 5888 5888 5888 5888 5887 5887 5887 5887 5887 5887 5887 5887 5887 5888 5888 5889 5889
5910 5909 5909 5908 5907 5906 5905 5904 5902 5901 5899 5898 5896 5895 5893 5892 5891 5890 5889 5887 5886 5886 5885 5884 5884 5884 5883 5883 5883 5883 5883 5882 5883 5883 5883 5884 5883 5883 5884 5884 5885 5886 5886
5906 5906 5905 5904 5903 5902 5901 5899 5898 5896 5895 5893 5891 5890 5888 5887 5885 5884 5883 5882 5881 5879 5879 5878 5878 5877 5877 5877 5877 5877 5877 5877 5878 5878 5879 5879 5878 5879 5879 5880 5880 5881 5882
5902 5902 5901 5900 5899 5897 5896 5894 5893 5891 5889 5888 5886 5884 5883 5881 5880 5878 5877 5876 5875 5874 5873 5872 5871 5871 5871 5870 5870 5871 5871 5871 5871 5872 5872 5873 5873 5873 5874 5874 5875 5876 5877
5898 5897 5896 5895 5894 5892 5891 5889 5887 5885 5883 5882 5880 5879 5877 5875 5874 5872 5871 5870 5868 5867 5866 5865 5865 5864 5864 5863 5863 5863 5864 5864 5864 5864 5865 5866 5867 5867 5867 5868 5869 5870 5871
5891 5891 5890 5889 5888 5887 5886 5884 5882 5880 5879 5877 5875 5873 5871 5870 5868 5866 5865 5863 5862 5861 5859 5858 5857 5857 5857 5856 5856 5856 5856 5856 5856 5857 5858 5859 5859 5860 5860 5861 5862 5863 5864
5886 5885 5885 5883 5882 5881 5880 5878 5877 5875 5873 5872 5870 5868 5866 5863 5862 5860 5859 5857 5856 5855 5853 5852 5851 5850 5850 5849 5849 5848 5848 5848 5849 5849 5850 5850 5851 5852 5853 5853 5854 5856 5857
5879 5878 5878 5876 5876 5875 5874 5873 5871 5869 5867 5866 5864 5862 5860 5858 5856 5854 5853 5851 5850 5849 5848 5847 5845 5844 5843 5842 5842 5840 5840 5841 5841 5841 5842 5842 5842 5843 5844 5846 5847 5847 5848
5870 5870 5871 5870 5869 5869 5868 5866 5865 5864 5862 5859 5857 5855 5854 5852 5850 5848 5847 5846 5845 5844 5842 5841 5840 5839 5838 5836 5835 5834 5834 5834 5834 5834 5834 5834 5834 5835 5836 5837 5838 5839 5840
5864 5864 5864 5863 5862 5862 5861 5859 5858 5857 5855 5853 5851 5849 5848 5846 5844 5843 5842 5841 5839 5838 5837 5836 5834 5833 5832 5830 5829 5828 5827 5827 5826 5826 5826 5827 5827 5827 5828 5829 5830 5830 5831
5857 5856 5856 5855 5855 5855 5854 5852 5851 5850 5849 5847 5845 5844 5842 5840 5839 5837 5836 5835 5834 5833 5832 5831 5829 5827 5826 5824 5823 5822 5821 5820 5820 5819 5819 5819 5819 5819 5819 5820 5821 5821 5821
5849 5848 5848 5849 5849 5847 5846 5845 5844 5842 5842 5840 5839 5837 5836 5834 5833 5832 5831 5830 5829 5828 5827 5825 5824 5822 5820 5818 5817 5816 5815 5815 5813 5812 5812 5811 5812 5812 5812 5812 5812 5812 5811
5843 5839 5838 5842 5841 5838 5838 5837 5836 5835 5834 5833 5832 5831 5830 5828 5827 5826 5825 5825 5824 5823 5821 5820 5818 5817 5815 5813 5811 5809 5808 5808 5807 5807 5805 5805 5804 5804 5804 5804 5805 5805 5806
5837 5834 5835 5835 5834 5832 5831 5829 5829 5828 5827 5826 5825 5824 5823 5822 5821 5820 5820 5819 5818 5817 5816 5814 5813 5811 5809 5807 5805 5803 5802 5800 5800 5800 5799 5798 5797 5797 5797 5797 5798 5798 5799
5830 5830 5829 5827 5826 5824 5823 5821 5821 5820 5819 5819 5818 5817 5815 5815 5814 5814 5813 5812 5811 5810 5809 5808 5806 5805 5803 5801 5799 5797 5795 5793 5792 5792 5792 5791 5790 5789 5789 5789 5790 5790 5791
5824 5823 5821 5819 5817 5816 5815 5814 5813 5812 5811 5810 5809 5808 5808 5807 5807 5806 5806 5805 5804 5803 5802 5801 5800 5798 5796 5794 5793 5791 5789 5787 5786 5784 5784 5783 5782 5782 5782 5782 5782 5781 5782